Location: Gaast
(52.9002°N, 5.8891°E)
Time: 06:58:49
(UTC+00:00)

ARIANE 6 FM1 Upper Stage - Visible Passes

Search period start: 20 January 2026 00:00
Search period end: 30 January 2026 00:00
Orbit: 522 x 610 km, 62.0° (Epoch: 19 January)

Date Brightness Start Highest point End Pass type
(mag) Time Alt. Az. Time Alt. Az. Time Alt. Az.
21 Jan 5.2 19:13:19 10° SSW 19:13:49 13° SSW 19:13:49 13° SSW visible
22 Jan 4.6 17:37:10 10° SE 17:38:37 13° SE 17:38:37 13° SE visible
22 Jan 4.8 19:13:22 10° SW 19:14:41 20° SW 19:14:41 20° SW visible
23 Jan 4.2 17:36:15 10° SSE 17:39:00 18° ESE 17:39:24 18° ESE visible
23 Jan 4.4 19:13:30 10° SW 19:15:27 27° SW 19:15:27 27° SW visible
24 Jan 3.8 17:35:43 10° S 17:39:00 24° SE 17:40:06 21° E visible
24 Jan 4.1 19:13:43 10° WSW 19:16:08 34° WSW 19:16:08 34° WSW visible
25 Jan 3.4 17:35:23 10° SSW 17:39:02 33° SE 17:40:42 23° E visible
25 Jan 4.0 19:13:59 10° WSW 19:16:44 37° W 19:16:44 37° W visible
26 Jan 3.0 17:35:13 10° SSW 17:39:05 44° SE 17:41:13 23° ENE visible
26 Jan 4.0 19:14:19 10° W 19:17:15 36° WNW 19:17:15 36° WNW visible
27 Jan 2.7 17:35:10 10° SW 17:39:10 61° SE 17:41:39 21° ENE visible
27 Jan 4.1 19:14:40 10° W 19:17:41 32° NW 19:17:41 32° NW visible
28 Jan 2.5 17:35:12 10° SW 17:39:15 81° SE 17:42:02 19° NE visible
28 Jan 4.2 19:15:04 10° W 19:18:04 29° NW 19:18:04 29° NW visible
29 Jan 2.6 17:35:20 10° SW 17:39:23 77° NW 17:42:22 17° NE visible
29 Jan 4.4 19:15:28 10° WNW 19:18:23 26° NNW 19:18:23 26° NNW visible
